Find Starlink 6278

NORAD ID: 56412 Int'l Des: 2023-061 Owner: SPXS Country: US Constellation: starlink operational
LEOCIRCULAR

当前视图

正在加载3D地球...

About Starlink 6278

Starlink 6278 (NORAD 56412) is a starlink constellation satellite (v1.5) launched May 4, 2023 by SPXS of US. It operates in LEO, CIRCULAR orbit with a mass of 305.00 kg.

关于 Starlink 6278

正在加载描述...

即将过境

Passes for default location (London). Set your location on the main map for personalized predictions.

高度历史

Loading altitude history...

两行轨道根数

1 56412U 23061AQ 26171.45448712 -.00000075 00000-0 68120-5 0 9997
2 56412 43.0030 326.4605 0001253 268.4860 91.5848 15.27576080172591
Epoch: Jun 20, 2026 • Age: 33 hours

当前状态

高度 482.5 km
速度 7.63 km/s
星下点 16.94°N, 128.02°E
发射日期 May 4, 2023
运行时间 3.1 years
类型 internet

技术详情

分类 Payload
质量 305.00 kg
干质量 290.00 kg
总质量 305.00 kg
长度 0.20 m
直径 2.80 m
跨度 9.00 m
形状 Box + pan
制造商 SPXS
平台类型 Starlink
阶段状态 In Orbit
所有者/国家 SPXS/US

Most Searched